ON7HN-2 Weather Reports


time (UTC)temp
F
wind
direction
speed
knots
gust
knots
rain 1hr
in
rain 24hr
in
rain mn
in
humidity
%
barometer
mb
20260510064005 54 47 6.1 8.7 0.00 0.00 0.00 77 1014.0
20260510063505 54 351 7.0 9.6 0.00 0.00 0.00 78 1013.9
20260510063005 54 358 9.6 10.4 0.00 0.00 0.00 79 1014.1
20260510062505 54 5 6.1 7.0 0.00 0.00 0.00 80 1013.9
20260510062010 54 4 7.8 11.3 0.00 0.00 0.00 80 1014.0
20260510061505 53 42 5.2 7.8 0.00 0.00 0.00 80 1013.9
20260510061005 53 30 4.3 7.0 0.00 0.00 0.00 81 1013.8
20260510060505 53 0 3.5 5.2 0.00 0.00 0.00 82 1014.0
20260510060006 52 70 3.5 5.2 0.00 0.00 0.00 83 1014.1
20260510055505 52 15 4.3 5.2 0.00 0.00 0.00 83 1013.9
20260510055005 52 353 4.3 5.2 0.00 0.00 0.00 83 1014.0
20260510054505 52 21 7.0 7.8 0.00 0.00 0.00 84 1013.9
20260510054005 51 317 5.2 7.0 0.00 0.00 0.00 84 1013.9
20260510053505 51 340 6.1 7.0 0.00 0.00 0.00 84 1014.0
20260510053005 51 30 5.2 5.2 0.00 0.00 0.00 85 1014.0
20260510052505 51 342 5.2 7.0 0.00 0.00 0.00 85 1014.1
20260510052005 51 12 2.6 3.5 0.00 0.00 0.00 85 1014.0
20260510051505 51 8 3.5 4.3 0.00 0.00 0.00 86 1014.2
20260510051005 51 19 2.6 4.3 0.00 0.00 0.00 86 1014.3
20260510050506 51 20 3.5 4.3 0.00 0.00 0.00 87 1013.9
20260510050006 51 39 3.5 4.3 0.00 0.00 0.00 87 1013.9
20260510045505 50 359 3.5 4.3 0.00 0.00 0.00 88 1013.7
20260510045006 50 12 4.3 5.2 0.00 0.00 0.00 88 1013.7
20260510044506 50 347 4.3 5.2 0.00 0.00 0.00 88 1014.1
20260510044006 50 19 2.6 3.5 0.00 0.00 0.00 88 1013.7
20260510043505 50 355 5.2 7.0 0.00 0.00 0.00 89 1013.9
20260510043005 50 2 2.6 3.5 0.00 0.00 0.00 89 1013.7
20260510042505 50 3 4.3 5.2 0.00 0.00 0.00 89 1013.8
20260510042005 50 24 2.6 3.5 0.00 0.00 0.00 89 1014.1
20260510041505 50 10 2.6 3.5 0.00 0.00 0.00 89 1013.8
20260510041005 50 13 1.7 2.6 0.00 0.00 0.00 89 1013.9
20260510040505 50 351 3.5 4.3 0.00 0.00 0.00 89 1014.0
20260510040005 50 20 4.3 5.2 0.00 0.00 0.00 89 1013.5
20260510035505 50 62 3.5 5.2 0.00 0.00 0.00 89 1013.8
20260510035005 51 14 3.5 3.5 0.00 0.00 0.00 88 1013.7
20260510034505 51 5 5.2 7.0 0.00 0.00 0.00 88 1013.5
20260510034010 51 338 3.5 4.3 0.00 0.00 0.00 88 1013.8
20260510033506 51 349 1.7 3.5 0.00 0.00 0.00 87 1013.9
20260510033006 51 354 2.6 3.5 0.00 0.00 0.00 87 1013.8
20260510032505 51 40 2.6 2.6 0.00 0.00 0.00 87 1013.8
20260510032005 51 351 3.5 3.5 0.00 0.00 0.00 86 1013.9
20260510031505 51 4 4.3 4.3 0.00 0.00 0.00 86 1014.2
20260510031005 51 13 2.6 4.3 0.00 0.00 0.00 86 1014.0
20260510030505 51 22 2.6 3.5 0.00 0.00 0.00 86 1014.0
20260510030005 51 22 3.5 3.5 0.00 0.00 0.00 86 1013.9
20260510025505 52 17 3.5 3.5 0.00 0.00 0.00 85 1013.9
20260510025005 51 6 4.3 5.2 0.00 0.00 0.00 86 1014.0
20260510024505 51 10 3.5 3.5 0.00 0.00 0.00 85 1014.0
20260510024005 52 345 2.6 3.5 0.00 0.00 0.00 85 1013.9
20260510023506 52 0 3.5 3.5 0.00 0.00 0.00 84 1014.1
20260510023005 52 6 2.6 3.5 0.00 0.00 0.00 84 1014.0
20260510022510 52 48 3.5 4.3 0.00 0.00 0.00 84 1013.9
20260510022006 52 30 4.3 5.2 0.00 0.00 0.00 84 1013.9
20260510021506 52 12 4.3 4.3 0.00 0.00 0.00 84 1014.1
20260510021005 52 8 4.3 4.3 0.00 0.00 0.00 84 1013.9
20260510020505 51 23 3.5 4.3 0.00 0.00 0.00 84 1014.1
20260510020005 52 28 2.6 3.5 0.00 0.00 0.00 83 1014.0
20260510015505 52 4 3.5 3.5 0.00 0.00 0.00 83 1014.1
20260510015005 52 9 2.6 3.5 0.00 0.00 0.00 83 1014.2
20260510014510 52 35 2.6 3.5 0.00 0.00 0.00 83 1014.3
20260510014006 52 15 2.6 3.5 0.00 0.00 0.00 82 1014.3
20260510013511 52 358 2.6 3.5 0.00 0.00 0.00 82 1014.5
20260510013011 52 27 1.7 2.6 0.00 0.00 0.00 82 1014.5
20260510012505 52 9 1.7 1.7 0.00 0.00 0.00 82 1014.4
20260510012006 52 19 2.6 2.6 0.00 0.00 0.00 82 1014.2
20260510011505 52 12 2.6 3.5 0.00 0.00 0.00 81 1014.3
20260510011005 52 12 1.7 2.6 0.00 0.00 0.00 81 1014.3
20260510010505 52 26 0.9 2.6 0.00 0.00 0.00 81 1014.5
20260510010010 52 10 2.6 3.5 0.00 0.00 0.00 80 1014.6
20260510005510 52 17 4.3 4.3 0.00 0.00 0.00 80 1014.5
20260510005006 52 15 1.7 3.5 0.00 0.00 0.00 80 1014.3
20260510004511 52 356 2.6 3.5 0.00 0.00 0.00 79 1014.6
20260510004005 52 352 6.1 7.0 0.00 0.00 0.00 79 1014.6
20260510003505 52 24 2.6 4.3 0.00 0.00 0.00 79 1014.6
20260510003005 52 18 5.2 7.0 0.00 0.00 0.00 78 1014.5
20260510002505 52 10 4.3 5.2 0.00 0.00 0.00 78 1014.5
20260510002006 53 9 3.5 4.3 0.00 0.00 0.00 78 1014.8
20260510001506 53 3 4.3 4.3 0.00 0.00 0.00 77 1014.7
20260510001005 53 14 3.5 3.5 0.00 0.00 0.00 77 1014.9
20260510000506 53 9 3.5 4.3 0.00 0.00 0.00 76 1014.9
20260510000005 53 43 4.3 4.3 0.00 0.00 0.00 76 1015.0
20260509235505 53 5 3.5 3.5 0.00 0.00 0.00 76 1015.0
20260509235006 53 11 3.5 5.2 0.00 0.00 0.00 76 1014.9
20260509234511 53 17 3.5 4.3 0.00 0.00 0.00 75 1014.9
20260509234005 53 7 5.2 5.2 0.00 0.00 0.00 75 1015.1
20260509233505 53 8 5.2 5.2 0.00 0.00 0.00 74 1014.9
20260509233005 53 8 3.5 4.3 0.00 0.00 0.00 74 1014.8
20260509232505 53 8 3.5 4.3 0.00 0.00 0.00 74 1014.9
20260509232005 54 25 3.5 3.5 0.00 0.00 0.00 73 1015.3
20260509231506 54 45 3.5 3.5 0.00 0.00 0.00 73 1015.0
20260509231005 54 11 3.5 4.3 0.00 0.00 0.00 72 1015.0
20260509230510 54 5 3.5 4.3 0.00 0.00 0.00 72 1015.3
20260509230010 54 5 4.3 5.2 0.00 0.00 0.00 71 1015.1
20260509225506 54 346 2.6 4.3 0.00 0.00 0.00 70 1015.3
20260509225006 54 13 3.5 3.5 0.00 0.00 0.00 70 1015.2
20260509224505 54 29 4.3 5.2 0.00 0.00 0.00 69 1015.1
20260509224005 54 0 3.5 4.3 0.00 0.00 0.00 68 1015.1
20260509223505 54 30 3.5 4.3 0.00 0.00 0.00 68 1015.3
20260509223006 55 33 1.7 2.6 0.00 0.00 0.00 66 1015.1
20260509222505 55 26 3.5 5.2 0.00 0.00 0.00 66 1015.1
20260509222010 55 8 5.2 7.0 0.00 0.00 0.00 66 1015.1
20260509221505 55 45 4.3 5.2 0.00 0.00 0.00 65 1015.0
20260509221005 55 354 4.3 5.2 0.00 0.00 0.00 64 1015.1
20260509220505 55 17 4.3 4.3 0.00 0.00 0.00 64 1015.1
20260509220006 55 15 2.6 3.5 0.00 0.00 0.00 64 1015.2
20260509215505 55 13 4.3 4.3 0.00 0.00 0.00 64 1015.1
20260509215010 55 31 4.3 4.3 0.00 0.00 0.00 64 1015.0
20260509214506 56 7 6.1 7.8 0.00 0.00 0.00 64 1015.0
20260509214006 56 3 4.3 5.2 0.00 0.00 0.00 65 1014.9
20260509213505 56 34 3.5 4.3 0.00 0.00 0.00 65 1014.9
20260509213006 56 355 5.2 7.0 0.00 0.00 0.00 65 1015.3
20260509212506 56 21 4.3 5.2 0.00 0.00 0.00 66 1015.0
20260509212005 56 356 4.3 4.3 0.00 0.00 0.00 66 1015.0
20260509211505 56 21 4.3 5.2 0.00 0.00 0.00 66 1015.0
20260509211010 56 347 3.5 5.2 0.00 0.00 0.00 66 1014.7
20260509210505 57 357 5.2 7.0 0.00 0.00 0.00 66 1014.8
20260509210005 57 353 2.6 3.5 0.00 0.00 0.00 66 1015.0
20260509205511 57 24 4.3 5.2 0.00 0.00 0.00 65 1014.9
20260509205006 57 14 4.3 5.2 0.00 0.00 0.00 65 1015.0
20260509204505 57 21 2.6 3.5 0.00 0.00 0.00 65 1014.7
20260509204005 57 2 1.7 3.5 0.00 0.00 0.00 65 1014.8
20260509203505 58 21 4.3 4.3 0.00 0.00 0.00 64 1014.7
20260509203010 58 11 4.3 5.2 0.00 0.00 0.00 64 1014.8
20260509202505 58 1 5.2 7.0 0.00 0.00 0.00 63 1015.0
20260509202006 58 20 5.2 7.0 0.00 0.00 0.00 63 1015.0
20260509201506 58 31 4.3 4.3 0.00 0.00 0.00 63 1014.9
20260509201011 59 7 2.6 2.6 0.00 0.00 0.00 63 1015.0
20260509200506 59 6 3.5 4.3 0.00 0.00 0.00 63 1014.8
20260509200006 59 33 5.2 7.0 0.00 0.00 0.00 62 1014.9
20260509195505 59 15 4.3 5.2 0.00 0.00 0.00 62 1014.8
20260509195005 59 6 4.3 5.2 0.00 0.00 0.00 61 1014.8
20260509194506 60 5 3.5 4.3 0.00 0.00 0.00 61 1014.7
20260509194006 60 4 7.0 8.7 0.00 0.00 0.00 61 1014.5
20260509193505 60 17 4.3 5.2 0.00 0.00 0.00 61 1014.5
20260509193005 60 18 7.0 7.8 0.00 0.00 0.00 60 1014.5
20260509192506 61 18 4.3 5.2 0.00 0.00 0.00 61 1014.5
20260509192005 61 5 4.3 4.3 0.00 0.00 0.00 61 1014.4
20260509191506 61 22 7.8 8.7 0.00 0.00 0.00 60 1014.4
20260509191005 61 355 6.1 7.0 0.00 0.00 0.00 60 1014.5
20260509190510 62 358 3.5 5.2 0.00 0.00 0.00 60 1014.4
20260509190006 62 302 5.2 7.8 0.00 0.00 0.00 60 1014.3
20260509185505 63 9 3.5 5.2 0.00 0.00 0.00 59 1014.3
20260509185005 63 16 5.2 7.0 0.00 0.00 0.00 58 1014.5
20260509184505 63 31 5.2 5.2 0.00 0.00 0.00 57 1014.5
20260509184005 63 338 9.6 11.3 0.00 0.00 0.00 57 1014.5
20260509183505 64 34 6.1 7.8 0.00 0.00 0.00 56 1014.6
20260509183006 64 18 6.1 8.7 0.00 0.00 0.00 55 1014.4
20260509182511 64 353 8.7 10.4 0.00 0.00 0.00 55 1014.2
20260509182005 64 22 5.2 7.8 0.00 0.00 0.00 54 1014.4
20260509181506 65 33 7.0 8.7 0.00 0.00 0.00 54 1014.3
20260509181006 66 13 7.8 9.6 0.00 0.00 0.00 52 1014.3
20260509180505 66 53 7.8 10.4 0.00 0.00 0.00 51 1014.2
20260509180010 66 347 5.2 5.2 0.00 0.00 0.00 51 1014.2
20260509175506 66 340 7.8 10.4 0.00 0.00 0.00 50 1014.2
20260509175006 66 60 8.7 9.6 0.00 0.00 0.00 49 1014.3
20260509174505 67 47 5.2 5.2 0.00 0.00 0.00 49 1014.2
20260509174005 67 8 5.2 7.0 0.00 0.00 0.00 49 1014.1
20260509173505 67 31 5.2 7.0 0.00 0.00 0.00 48 1014.0
20260509173006 67 18 6.1 7.8 0.00 0.00 0.00 48 1014.2
20260509172506 68 358 3.5 4.3 0.00 0.00 0.00 48 1014.0
20260509172005 68 56 4.3 5.2 0.00 0.00 0.00 48 1013.9
20260509171505 68 14 7.0 9.6 0.00 0.00 0.00 48 1013.8
20260509171005 68 322 5.2 5.2 0.00 0.00 0.00 48 1014.1
20260509170505 68 353 6.1 7.0 0.00 0.00 0.00 48 1014.0
20260509170005 68 356 4.3 5.2 0.00 0.00 0.00 48 1013.8
20260509165505 69 342 5.2 7.0 0.00 0.00 0.00 48 1013.7
20260509165010 68 10 6.1 7.8 0.00 0.00 0.00 48 1013.5
20260509164505 69 335 6.1 8.7 0.00 0.00 0.00 48 1014.0
20260509164005 69 17 6.1 8.7 0.00 0.00 0.00 46 1014.1
20260509163505 69 13 4.3 5.2 0.00 0.00 0.00 46 1014.0
20260509163005 69 29 3.5 5.2 0.00 0.00 0.00 45 1014.0
20260509162511 69 347 4.3 5.2 0.00 0.00 0.00 44 1013.9
20260509162006 69 13 4.3 5.2 0.00 0.00 0.00 44 1014.0
20260509161510 69 33 5.2 7.0 0.00 0.00 0.00 44 1014.1
20260509161006 69 1 7.0 8.7 0.00 0.00 0.00 44 1014.0
20260509160505 69 345 3.5 3.5 0.00 0.00 0.00 45 1014.1
20260509160005 69 20 2.6 2.6 0.00 0.00 0.00 44 1014.1
20260509155510 69 335 1.7 2.6 0.00 0.00 0.00 44 1014.1
20260509155005 69 339 2.6 3.5 0.00 0.00 0.00 44 1014.1
20260509154510 70 0 1.7 2.6 0.00 0.00 0.00 44 1014.1
20260509154006 70 19 0.9 1.7 0.00 0.00 0.00 41 1014.1
20260509153510 70 15 0.0 0.9 0.00 0.00 0.00 42 1014.3
20260509153005 69 75 1.7 3.5 0.00 0.00 0.00 42 1014.1
20260509152505 70 14 0.0 0.9 0.00 0.00 0.00 41 1014.2
20260509152005 72 81 2.6 3.5 0.00 0.00 0.00 41 1014.0
20260509151505 72 65 2.6 4.3 0.00 0.00 0.00 41 1014.2
20260509151006 72 59 2.6 3.5 0.00 0.00 0.00 40 1014.0
20260509150505 72 34 1.7 1.7 0.00 0.00 0.00 40 1014.1
20260509150005 71 359 0.0 0.9 0.00 0.00 0.00 39 1014.0
20260509145505 70 5 0.0 0.0 0.00 0.00 0.00 41 1014.4
20260509145006 70 51 0.9 1.7 0.00 0.00 0.00 42 1014.3
20260509144505 68 34 2.6 3.5 0.00 0.00 0.00 43 1014.4
20260509144005 68 49 1.7 2.6 0.00 0.00 0.00 43 1014.4
20260509143505 70 21 4.3 5.2 0.00 0.00 0.00 43 1014.4
20260509143005 70 11 3.5 4.3 0.00 0.00 0.00 42 1014.5
20260509142506 70 36 1.7 3.5 0.00 0.00 0.00 43 1014.6
20260509142005 69 27 0.9 1.7 0.00 0.00 0.00 44 1014.4
20260509141506 70 0 2.6 3.5 0.00 0.00 0.00 43 1014.5
20260509141005 71 356 0.0 0.9 0.00 0.00 0.00 41 1014.5
20260509140506 72 27 3.5 4.3 0.00 0.00 0.00 40 1014.8
20260509140006 72 8 1.7 2.6 0.00 0.00 0.00 40 1014.8
20260509135510 71 9 0.0 0.9 0.00 0.00 0.00 41 1014.5
20260509135005 71 65 1.7 1.7 0.00 0.00 0.00 41 1014.6
20260509134506 73 222 1.7 2.6 0.00 0.00 0.00 39 1014.8
20260509134006 72 28 0.0 0.0 0.00 0.00 0.00 41 1014.6
20260509133506 71 29 0.9 2.6 0.00 0.00 0.00 41 1014.8
20260509133005 71 21 0.0 0.9 0.00 0.00 0.00 41 1014.7
20260509132505 70 34 2.6 3.5 0.00 0.00 0.00 41 1015.0
20260509132005 71 49 1.7 2.6 0.00 0.00 0.00 42 1014.7
20260509131506 71 57 0.9 1.7 0.00 0.00 0.00 41 1014.9
20260509131005 70 349 0.0 0.9 0.00 0.00 0.00 41 1015.0
20260509130506 70 25 3.5 4.3 0.00 0.00 0.00 42 1014.7
20260509130010 70 74 3.5 4.3 0.00 0.00 0.00 43 1015.1
20260509125505 70 50 3.5 5.2 0.00 0.00 0.00 43 1015.0
20260509125005 70 238 3.5 5.2 0.00 0.00 0.00 42 1015.1
20260509124505 69 66 3.5 4.3 0.00 0.00 0.00 45 1015.3
20260509124006 70 30 3.5 5.2 0.00 0.00 0.00 45 1015.3
20260509123506 69 10 3.5 5.2 0.00 0.00 0.00 44 1015.3
20260509123006 69 15 2.6 3.5 0.00 0.00 0.00 44 1015.3
20260509122506 70 65 2.6 3.5 0.00 0.00 0.00 43 1015.3
20260509122005 69 22 2.6 4.3 0.00 0.00 0.00 44 1015.3
20260509121505 69 50 1.7 1.7 0.00 0.00 0.00 44 1015.4
20260509121005 70 14 3.5 5.2 0.00 0.00 0.00 46 1015.4
20260509120505 69 11 3.5 4.3 0.00 0.00 0.00 46 1015.5
20260509120005 70 113 2.6 4.3 0.00 0.00 0.00 45 1015.8
20260509115505 69 10 1.7 2.6 0.00 0.00 0.00 46 1015.8
20260509115005 69 33 4.3 5.2 0.00 0.00 0.00 46 1015.9
20260509114510 68 347 2.6 3.5 0.00 0.00 0.00 48 1015.9
20260509114005 68 1 0.0 0.9 0.00 0.00 0.00 47 1016.1
20260509113505 69 50 2.6 3.5 0.00 0.00 0.00 46 1016.2
20260509113005 68 24 3.5 4.3 0.00 0.00 0.00 46 1016.0
20260509112505 68 2 6.1 7.0 0.00 0.00 0.00 48 1016.1
20260509112005 68 9 3.5 3.5 0.00 0.00 0.00 48 1015.8
20260509111510 67 62 0.9 2.6 0.00 0.00 0.00 48 1016.2
20260509111005 68 3 2.6 4.3 0.00 0.00 0.00 48 1016.2
20260509110505 68 54 2.6 3.5 0.00 0.00 0.00 46 1016.0
20260509110005 68 2 2.6 2.6 0.00 0.00 0.00 49 1016.2
20260509105506 66 51 3.5 7.0 0.00 0.00 0.00 49 1016.2
20260509105011 67 0 4.3 4.3 0.00 0.00 0.00 49 1016.3
20260509104510 67 13 2.6 3.5 0.00 0.00 0.00 49 1016.1
20260509104006 68 72 2.6 7.0 0.00 0.00 0.00 48 1016.3
20260509103511 68 19 1.7 2.6 0.00 0.00 0.00 49 1016.3
20260509103006 67 57 3.5 4.3 0.00 0.00 0.00 50 1016.4
20260509102505 68 25 1.7 1.7 0.00 0.00 0.00 49 1016.3
20260509102010 66 48 2.6 3.5 0.00 0.00 0.00 51 1016.4
20260509101510 67 356 1.7 2.6 0.00 0.00 0.00 50 1016.5
20260509101006 66 74 3.5 5.2 0.00 0.00 0.00 50 1016.5
20260509100506 66 51 1.7 2.6 0.00 0.00 0.00 53 1016.4
20260509100006 66 80 3.5 5.2 0.00 0.00 0.00 51 1016.4
20260509095505 67 69 3.5 4.3 0.00 0.00 0.00 50 1016.5
20260509095006 67 75 3.5 5.2 0.00 0.00 0.00 48 1016.4
20260509094505 66 35 3.5 4.3 0.00 0.00 0.00 51 1016.4
20260509094005 66 27 5.2 7.0 0.00 0.00 0.00 49 1016.6
20260509093505 65 50 4.3 7.0 0.00 0.00 0.00 52 1016.6
20260509093005 66 39 7.0 7.8 0.00 0.00 0.00 50 1016.8
20260509092506 65 77 4.3 7.0 0.00 0.00 0.00 50 1016.7
20260509092011 65 43 5.2 5.2 0.00 0.00 0.00 50 1016.8
20260509091505 65 32 3.5 5.2 0.00 0.00 0.00 50 1016.7
20260509091005 66 34 2.6 5.2 0.00 0.00 0.00 51 1016.6
20260509090505 65 32 1.7 2.6 0.00 0.00 0.00 52 1016.6
20260509090005 66 34 2.6 2.6 0.00 0.00 0.00 53 1016.6
20260509085505 64 44 2.6 4.3 0.00 0.00 0.00 53 1016.5
20260509085005 65 86 1.7 1.7 0.00 0.00 0.00 52 1016.8
20260509084505 65 77 0.9 1.7 0.00 0.00 0.00 50 1016.7
20260509084006 64 82 3.5 3.5 0.00 0.00 0.00 52 1016.7
20260509083506 64 60 2.6 4.3 0.00 0.00 0.00 54 1016.5
20260509083011 64 76 4.3 5.2 0.00 0.00 0.00 55 1016.7
20260509082505 64 116 1.7 3.5 0.00 0.00 0.00 55 1016.8
20260509082005 64 68 5.2 7.0 0.00 0.00 0.00 54 1016.7
20260509081511 64 60 1.7 2.6 0.00 0.00 0.00 57 1016.9
20260509081006 63 62 2.6 3.5 0.00 0.00 0.00 56 1016.7
20260509080506 63 26 0.9 0.9 0.00 0.00 0.00 58 1017.0
20260509080005 63 91 3.5 3.5 0.00 0.00 0.00 57 1016.8
20260509075505 62 41 1.7 3.5 0.00 0.00 0.00 57 1016.8
20260509075005 62 53 2.6 3.5 0.00 0.00 0.00 57 1016.9
20260509074505 62 26 0.9 1.7 0.00 0.00 0.00 57 1017.0
20260509074010 62 81 3.5 3.5 0.00 0.00 0.00 57 1016.9
20260509073510 61 61 1.7 2.6 0.00 0.00 0.00 59 1016.9
20260509073006 61 54 3.5 4.3 0.00 0.00 0.00 59 1016.8
20260509072510 61 55 2.6 3.5 0.00 0.00 0.00 60 1016.9
20260509072005 61 20 0.9 1.7 0.00 0.00 0.00 58 1016.8
20260509071505 61 101 0.9 1.7 0.00 0.00 0.00 59 1017.1
20260509071010 61 47 3.5 4.3 0.00 0.00 0.00 60 1016.8
20260509070505 60 349 0.9 1.7 0.00 0.00 0.00 61 1016.8
20260509070005 60 25 0.0 1.7 0.00 0.00 0.00 62 1016.8
20260509065505 59 39 0.9 1.7 0.00 0.00 0.00 63 1016.9
20260509065005 59 58 0.0 1.7 0.00 0.00 0.00 64 1016.6
20260509064505 59 24 1.7 2.6 0.00 0.00 0.00 64 1017.0